This demonstration page uses our WeatherBlox Daily Observations layout. Learn more.

Left ArrowRight Arrow

38.20091, -84.87328

Hourly Observations for April 24, 2020

Temp ( °F °C ) Dew Point ( °F °C ) Humidity (%) Winds ( mph kmh ) Pressure ( in mb ) Visibility ( mi km ) Precip ( " mm )
12:46 am 00:46 Cloudy with Mist and Fog 56 13.3 54 12.2 93 93 N 3 6 29.60 1002 4 6 0.00 0.00
12:53 am 00:53 Cloudy with Mist and Fog 56 13.3 54 12.2 93 93 NNW 5 7 29.59 1002 5 8 0.00 0.00
1:53 am 01:53 Cloudy 56 13.3 53 11.7 90 90 NNW 8 13 29.60 1002 10 16 0.00 0.00
2:24 am 02:24 Cloudy 56 13.3 53 11.7 90 90 NNW 6 9 29.61 1003 10 16 0.00 0.00
2:53 am 02:53 Cloudy 56 13.3 53 11.7 90 90 NW 8 13 29.61 1003 9 14 0.00 0.00
3:29 am 03:29 Cloudy 56 13.3 53 11.7 90 90 NNW 7 11 29.62 1003 10 16 0.00 0.00
3:51 am 03:51 Cloudy with Mist and Fog 55 13 54 12 94 94 NNW 6 9 29.62 1003 6 10 0.00 0.00
3:53 am 03:53 Cloudy 56 13.3 53 11.7 90 90 NNW 6 9 29.62 1003 7 11 0.00 0.00
4:23 am 04:23 Cloudy with Mist and Fog 56 13.3 53 11.7 90 90 NNW 3 6 29.64 1004 6 10 0.00 0.00
4:53 am 04:53 Cloudy with Mist and Fog 56 13.3 53 11.7 90 90 NW 6 9 29.64 1004 5 8 0.00 0.00
5:53 am 05:53 Cloudy with Mist and Fog 55 12.8 53 11.7 93 93 NW 7 11 29.67 1005 6 10 0.00 0.00
6:53 am 06:53 Cloudy 55 12.8 53 11.7 93 93 NW 6 9 29.69 1005 10 16 0.00 0.00
7:53 am 07:53 Cloudy 56 13.3 52 11.1 87 87 NNW 7 11 29.72 1006 10 16 0.00 0.00
8:53 am 08:53 Cloudy 55 12.8 51 10.6 87 87 NNW 10 17 29.75 1008 10 16 0.00 0.00
9:26 am 09:26 Cloudy 55 12.8 51 10.6 87 87 NW 8 13 29.78 1009 10 16 0.00 0.00
9:53 am 09:53 Cloudy 56 13.3 52 11.1 87 87 NNW 9 15 29.78 1008 10 16 0.00 0.00
10:27 am 10:27 Cloudy 54 12.2 50 10 87 87 NNW 9 15 29.80 1009 10 16 0.00 0.00
10:53 am 10:53 Cloudy 55 12.8 50 10 83 83 NNW 8 13 29.80 1009 10 16 0.00 0.00
11:08 am 11:08 Cloudy 56 13.3 50 10 81 81 VRB 5 7 29.82 1010 10 16 0.00 0.00
11:53 am 11:53 Cloudy 56 13.3 49 9.4 77 77 NNW 10 17 29.83 1010 10 16 0.00 0.00
12:11 pm 12:11 Cloudy 56 13.3 48 8.9 75 75 N 8 13 29.85 1011 10 16 0.00 0.00
12:53 pm 12:53 Cloudy 58 14.4 49 9.4 72 72 NW 6 9 29.84 1011 10 16 0.00 0.00
1:26 pm 13:26 Cloudy 60 15.6 50 10 70 70 VRB 3 6 29.84 1011 10 16 0.00 0.00
1:33 pm 13:33 Cloudy 61 16.1 50 10 67 67 NNW 5 7 29.84 1011 10 16 0.00 0.00
1:53 pm 13:53 Cloudy 62 16.7 50 10 65 65 Calm 29.84 1011 10 16 0.00 0.00
2:53 pm 14:53 Cloudy 63 17.2 50 10 63 63 Calm 29.84 1011 10 16 0.00 0.00
3:53 pm 15:53 Cloudy 65 18.3 50 10 59 59 N 6 9 29.84 1010 10 16 0.00 0.00
4:53 pm 16:53 Cloudy 65 18.3 49 9.4 56 56 E 5 7 29.83 1010 10 16 0.00 0.00
5:53 pm 17:53 Mostly Sunny 65 18.3 48 8.9 54 54 Calm 29.83 1010 10 16 0.00 0.00
6:53 pm 18:53 Mostly Sunny 63 17.2 50 10 63 63 E 7 11 29.83 1010 10 16 0.00 0.00
7:53 pm 19:53 Sunny 61 16.1 50 10 67 67 SE 5 7 29.83 1010 10 16 0.00 0.00
8:53 pm 20:53 Clear 55 12.8 49 9.4 80 80 Calm 29.86 1011 10 16 0.00 0.00
9:53 pm 21:53 Clear 51 10.6 47 8.3 86 86 Calm 29.88 1012 10 16 0.00 0.00
10:53 pm 22:53 Clear 50 10 47 8.3 89 89 Calm 29.87 1012 10 16 0.00 0.00
11:53 pm 23:53 Clear 49 9.4 45 7.2 86 86 Calm 29.87 1012 10 16 0.00 0.00

Powered by AerisWeather